Hourly Data Report for June 06, 2004

SHERBROOKE A
QUEBEC

45°26'00.000" N
71°41'00.000" W
241.40 m
7028124
71610
YSC

Download Data

Hourly Data (June 2004)
Hourly Data Report for June 6, 2004
TIME
LST
Temp Definition
°C
Dew Point Definition
°C
Rel Hum Definition
%
Precip. Amount Definition
mm

Wind Dir Definition
10's deg

Wind Spd Definition
km/h
Visibility Definition
km
Stn Press Definition
kPa
Hmdx Definition


Wind Chill Definition


Weather Definition


00:00 8.6 6.6 87   14 4 15.0 99.27      
01:00 7.6 6.0 90   24 6 15.0 99.30      
02:00 7.6 5.4 86   19 4 15.0 99.33      
03:00 6.8 5.6 92   14 6 15.0 99.34      
04:00 6.1 5.1 93   4 4 15.0 99.35      
05:00 8.3 6.8 90   12 9 15.0 99.37      
06:00 10.7 7.7 82   12 11 15.0 99.38      
07:00 14.0 7.9 67   13 17 24.1 99.34     Mostly Cloudy
08:00 15.2 8.0 62   15 9 24.1 99.37     Mostly Cloudy
09:00 16.0 5.0 48   16 13 24.1 99.31     Cloudy
10:00 17.5 5.7 46   17 15 24.1 99.28     Mostly Cloudy
11:00 18.8 6.1 43   16 9 24.1 99.23     Mostly Cloudy
12:00 18.3 6.1 45   21 11 24.1 99.18     Mostly Cloudy
13:00 19.1 6.3 43   19 9 24.1 99.10     Mostly Cloudy
14:00 20.0 8.5 47   23 13 24.1 99.02     Mostly Cloudy
15:00 20.4 8.0 45   23 7 24.1 98.96     Mostly Cloudy
16:00 20.1 7.9 45   15 19 24.1 98.91     Mostly Cloudy
17:00 18.6 6.9 46   18 15 15.0 98.92      
18:00 17.4 4.2 42   16 15 15.0 98.92      
19:00 16.5 4.0 43   16 13 15.0 98.93      
20:00 15.5 4.2 47   16 13 15.0 98.92      
21:00 14.6 4.6 51   15 11 15.0 98.94      
22:00 13.8 5.2 56   15 9 15.0 98.97      
23:00 12.9 5.1 59   17 6 15.0 98.96      

Notes on Data Quality.

Legend

  • E = Estimated
  • M = Missing
  • NA = Not Available*
  • [empty] = Indicates an unobserved value
Date modified: